,,Stat6,,Stat2,,Stat8,,Stat9,,Stat10,,Wind1,,Wind1,
time,status,PA1M_AVG,status,PR1M_SUM,status,RH1M_AVG,status,SR1M_AVG,status,TA1M_AVG,status,W1dAve1m,status,W1sAve1m,
2003-10-16, 00:00:00,VALID,919.829,VALID,0,VALID,100,VALID,-0.0849042,VALID,18.9201,VALID,24,VALID,0.0679687,
2003-10-16, 00:01:00,VALID,919.814,VALID,0,VALID,100,VALID,-0.101885,VALID,18.94,VALID,5,VALID,0.34484,
2003-10-16, 00:02:00,VALID,919.809,VALID,0,VALID,100,VALID,-0.101885,VALID,18.9464,VALID,328,VALID,0.618278,
2003-10-16, 00:03:00,VALID,919.797,VALID,0,VALID,100,VALID,-0.101885,VALID,18.9432,VALID,26,VALID,1.06399,
2003-10-16, 00:04:00,VALID,919.808,VALID,0,VALID,100,VALID,0.0339617,VALID,18.9411,VALID,22,VALID,0.410156,
2003-10-16, 00:05:00,VALID,919.793,VALID,0,VALID,100,VALID,0,VALID,18.9542,VALID,19,VALID,0.0466974,
2003-10-16, 00:06:00,VALID,919.766,VALID,0,VALID,100,VALID,0,VALID,18.9547,VALID,28,VALID,0.817645,
2003-10-16, 00:07:00,VALID,919.747,VALID,0,VALID,100,VALID,0,VALID,18.9549,VALID,13,VALID,0.627734,
2003-10-16, 00:08:00,VALID,919.736,VALID,0,VALID,100,VALID,0,VALID,18.9577,VALID,13,VALID,0.327947,
2003-10-16, 00:09:00,VALID,919.725,VALID,0,VALID,100,VALID,-0.0169808,VALID,18.9577,VALID,13,VALID,0.114826,
2003-10-16, 00:10:00,VALID,919.717,VALID,0,VALID,100,VALID,0,VALID,18.948,VALID,12,VALID,0.405273,
2003-10-16, 00:11:00,VALID,919.729,VALID,0,VALID,100,VALID,0.0169808,VALID,18.9512,VALID,350,VALID,0.0586846,
2003-10-16, 00:12:00,VALID,919.729,VALID,0,VALID,100,VALID,0.0339617,VALID,18.9574,VALID,290,VALID,0.152148,
2003-10-16, 00:13:00,VALID,919.722,VALID,0,VALID,100,VALID,0.0339617,VALID,18.9544,VALID,200,VALID,0.172075,
2003-10-16, 00:14:00,VALID,919.691,VALID,0,VALID,100,VALID,0.0169808,VALID,18.9413,VALID,105,VALID,0.456174,
2003-10-16, 00:15:00,VALID,919.679,VALID,0,VALID,100,VALID,0,VALID,18.948,VALID,355,VALID,0.718924,
2003-10-16, 00:16:00,VALID,919.675,VALID,0,VALID,100,VALID,0.0169808,VALID,18.951,VALID,23,VALID,0.132102,
2003-10-16, 00:17:00,VALID,919.668,VALID,0,VALID,100,VALID,0.0339617,VALID,18.9579,VALID,17,VALID,0.416295,
2003-10-16, 00:18:00,VALID,919.643,VALID,0,VALID,100,VALID,0.0169808,VALID,18.9611,VALID,36,VALID,0.256479,
2003-10-16, 00:19:00,VALID,919.645,VALID,0,VALID,100,VALID,0.0339617,VALID,18.9512,VALID,43,VALID,0.422215,
2003-10-16, 00:20:00,VALID,919.629,VALID,0,VALID,100,VALID,0.0169808,VALID,18.9443,VALID,142,VALID,0.293713,
2003-10-16, 00:21:00,VALID,919.619,VALID,0,VALID,100,VALID,0.0169808,VALID,18.9542,VALID,228,VALID,0.237805,
2003-10-16, 00:22:00,VALID,919.619,VALID,0,VALID,100,VALID,0,VALID,18.9711,VALID,25,VALID,0.334077,
2003-10-16, 00:23:00,VALID,919.624,VALID,0,VALID,100,VALID,0.0169808,VALID,18.9736,VALID,7,VALID,0.0455729,
2003-10-16, 00:24:00,VALID,919.634,VALID,0,VALID,100,VALID,0.0339617,VALID,18.9701,VALID,7,VALID,0.196456,
2003-10-16, 00:25:00,VALID,919.618,VALID,0,VALID,100,VALID,0,VALID,19.0031,VALID,16,VALID,0.210938,
2003-10-16, 00:26:00,VALID,919.616,VALID,0,VALID,100,VALID,0,VALID,18.9867,VALID,81,VALID,0.351376,
2003-10-16, 00:27:00,VALID,919.592,VALID,0,VALID,100,VALID,0,VALID,18.9969,VALID,58,VALID,0.578506,
2003-10-16, 00:28:00,VALID,919.567,VALID,0,VALID,100,VALID,0.0169808,VALID,18.9997,VALID,30,VALID,0.844444,
2003-10-16, 00:29:00,VALID,919.582,VALID,0,VALID,100,VALID,0,VALID,19.0091,VALID,345,VALID,0.756445,
2003-10-16, 00:30:00,VALID,919.566,VALID,0,VALID,100,VALID,0,VALID,19.0126,VALID,10,VALID,0.678622,
2003-10-16, 00:31:00,VALID,919.551,VALID,0,VALID,100,VALID,0,VALID,19.0225,VALID,58,VALID,0.618164,
2003-10-16, 00:32:00,VALID,919.548,VALID,0,VALID,100,VALID,0,VALID,19.0153,VALID,49,VALID,0.374455,
2003-10-16, 00:33:00,VALID,919.524,VALID,0,VALID,100,VALID,0.0169808,VALID,19.0317,VALID,105,VALID,0.210574,
2003-10-16, 00:34:00,VALID,919.528,VALID,0,VALID,100,VALID,0.0339617,VALID,19.0252,VALID,214,VALID,0.203303,
2003-10-16, 00:35:00,VALID,919.513,VALID,0,VALID,100,VALID,0.0509425,VALID,19.022,VALID,45,VALID,0.334549,
2003-10-16, 00:36:00,VALID,919.484,VALID,0,VALID,100,VALID,0.0849042,VALID,19.0352,VALID,19,VALID,0.274805,
2003-10-16, 00:37:00,VALID,919.473,VALID,0,VALID,100,VALID,0.0849042,VALID,19.025,VALID,312,VALID,0.48544,
2003-10-16, 00:38:00,VALID,919.456,VALID,0,VALID,100,VALID,0.0339617,VALID,19.0253,VALID,124,VALID,0.683398,
2003-10-16, 00:39:00,VALID,919.44,VALID,0,VALID,100,VALID,0.0679233,VALID,19.0322,VALID,336,VALID,0.995561,
2003-10-16, 00:40:00,VALID,919.43,VALID,0,VALID,100,VALID,0.0509425,VALID,19.0354,VALID,11,VALID,0.326562,
2003-10-16, 00:41:00,VALID,919.409,VALID,0,VALID,100,VALID,0.0509425,VALID,19.0223,VALID,5,VALID,0.153819,
2003-10-16, 00:42:00,VALID,919.382,VALID,0,VALID,100,VALID,0.101885,VALID,19.0183,VALID,338,VALID,0.435501,
2003-10-16, 00:43:00,VALID,919.322,VALID,0,VALID,100,VALID,0.0679233,VALID,19.0156,VALID,6,VALID,0.551417,
2003-10-16, 00:44:00,VALID,919.302,VALID,0,VALID,100,VALID,0.0509425,VALID,19.0188,VALID,55,VALID,0.560594,
2003-10-16, 00:45:00,VALID,919.312,VALID,0,VALID,100,VALID,0.0169808,VALID,19.0257,VALID,34,VALID,0.478561,
2003-10-16, 00:46:00,VALID,919.291,VALID,0,VALID,100,VALID,0.0339617,VALID,19.0349,VALID,19,VALID,0.290972,
2003-10-16, 00:47:00,VALID,919.297,VALID,0,VALID,100,VALID,0.0339617,VALID,19.0252,VALID,13,VALID,0.866815,
2003-10-16, 00:48:00,VALID,919.284,VALID,0,VALID,100,VALID,0.0509425,VALID,19.0416,VALID,357,VALID,0.500762,
2003-10-16, 00:49:00,VALID,919.279,VALID,0,VALID,100,VALID,-0.0339617,VALID,19.0227,VALID,37,VALID,0.799964,
2003-10-16, 00:50:00,VALID,919.251,VALID,0,VALID,100,VALID,-0.0339617,VALID,19.0428,VALID,53,VALID,0.893043,
2003-10-16, 00:51:00,VALID,919.249,VALID,0,VALID,100,VALID,-0.0679233,VALID,19.0331,VALID,351,VALID,0.768111,
2003-10-16, 00:52:00,VALID,919.249,VALID,0,VALID,100,VALID,-0.0509425,VALID,19.0299,VALID,338,VALID,1.02788,
2003-10-16, 00:53:00,VALID,919.239,VALID,0,VALID,100,VALID,-0.0509425,VALID,19.0495,VALID,21,VALID,0.466273,
2003-10-16, 00:54:00,VALID,919.226,VALID,0,VALID,100,VALID,-0.0339617,VALID,19.0495,VALID,22,VALID,0.448153,
2003-10-16, 00:55:00,VALID,919.203,VALID,0,VALID,100,VALID,-0.101885,VALID,19.056,VALID,11,VALID,0.319767,
2003-10-16, 00:56:00,VALID,919.179,VALID,0,VALID,100,VALID,-0.0509425,VALID,19.0657,VALID,7,VALID,0.023247,
2003-10-16, 00:57:00,VALID,919.169,VALID,0,VALID,100,VALID,-0.0509425,VALID,19.0687,VALID,24,VALID,0.498884,
2003-10-16, 00:58:00,VALID,919.149,VALID,0,VALID,100,VALID,-0.0509425,VALID,19.0724,VALID,342,VALID,0.580602,
2003-10-16, 00:59:00,VALID,919.128,VALID,0,VALID,100,VALID,-0.0679233,VALID,19.0657,VALID,249,VALID,0.636991,
2003-10-16, 01:00:00,VALID,919.109,VALID,0,VALID,100,VALID,-0.0509425,VALID,19.0687,VALID,24,VALID,0.864462,
2003-10-16, 01:01:00,VALID,919.101,VALID,0,VALID,100,VALID,-0.0339617,VALID,19.0786,VALID,5,VALID,0.55506,
2003-10-16, 01:02:00,VALID,919.08,VALID,0,VALID,100,VALID,-0.0509425,VALID,19.0816,VALID,25,VALID,0.428597,
2003-10-16, 01:03:00,VALID,919.083,VALID,0,VALID,100,VALID,-0.0679233,VALID,19.0719,VALID,92,VALID,0.150856,
2003-10-16, 01:04:00,VALID,919.087,VALID,0,VALID,100,VALID,0.0509425,VALID,19.0575,VALID,95,VALID,0.319382,
2003-10-16, 01:05:00,VALID,919.026,VALID,0,VALID,100,VALID,0.0169808,VALID,19.0548,VALID,30,VALID,0.983203,
2003-10-16, 01:06:00,VALID,919.042,VALID,0,VALID,100,VALID,0,VALID,19.0449,VALID,26,VALID,1.26563,
2003-10-16, 01:07:00,VALID,919.031,VALID,0,VALID,100,VALID,0,VALID,19.0483,VALID,344,VALID,0.736328,
2003-10-16, 01:08:00,VALID,919.044,VALID,0,VALID,100,VALID,0.0169808,VALID,19.0352,VALID,330,VALID,0.930469,
2003-10-16, 01:09:00,VALID,919.035,VALID,0,VALID,100,VALID,0.0679233,VALID,19.0513,VALID,27,VALID,0.420058,
2003-10-16, 01:10:00,VALID,919.023,VALID,0,VALID,100,VALID,0.0339617,VALID,19.058,VALID,14,VALID,0.387962,
2003-10-16, 01:11:00,VALID,918.983,VALID,0,VALID,100,VALID,0.0169808,VALID,19.0575,VALID,60,VALID,0.350543,
2003-10-16, 01:12:00,VALID,918.955,VALID,0,VALID,100,VALID,0.0339617,VALID,19.0677,VALID,12,VALID,0.612805,
2003-10-16, 01:13:00,VALID,918.925,VALID,0,VALID,100,VALID,0.0509425,VALID,19.0675,VALID,70,VALID,0.549352,
2003-10-16, 01:14:00,VALID,918.918,VALID,0,VALID,100,VALID,0.0509425,VALID,19.0511,VALID,40,VALID,0.776344,
2003-10-16, 01:15:00,VALID,918.905,VALID,0,VALID,100,VALID,0.0509425,VALID,19.0444,VALID,67,VALID,0.34082,
2003-10-16, 01:16:00,VALID,918.897,VALID,0,VALID,100,VALID,0.0169808,VALID,19.0414,VALID,312,VALID,0.649346,
2003-10-16, 01:17:00,VALID,918.88,VALID,0,VALID,100,VALID,0.0339617,VALID,19.0513,VALID,15,VALID,1.14698,
2003-10-16, 01:18:00,VALID,918.874,VALID,0,VALID,100,VALID,0.0679233,VALID,19.0449,VALID,260,VALID,0.430246,
2003-10-16, 01:19:00,VALID,918.875,VALID,0,VALID,100,VALID,-0.0509425,VALID,19.0463,VALID,91,VALID,0.457812,
2003-10-16, 01:20:00,VALID,918.853,VALID,0,VALID,100,VALID,-0.0679233,VALID,19.0267,VALID,20,VALID,0.171684,
2003-10-16, 01:21:00,VALID,918.837,VALID,0,VALID,100,VALID,-0.0679233,VALID,19.0336,VALID,5,VALID,0.283736,
2003-10-16, 01:22:00,VALID,918.833,VALID,0,VALID,100,VALID,-0.101885,VALID,19.0267,VALID,28,VALID,0.952195,
2003-10-16, 01:23:00,VALID,918.82,VALID,0,VALID,100,VALID,-0.0509425,VALID,19.0336,VALID,88,VALID,0.593941,
2003-10-16, 01:24:00,VALID,918.818,VALID,0,VALID,100,VALID,-0.0339617,VALID,19.0267,VALID,55,VALID,0.792878,
2003-10-16, 01:25:00,VALID,918.806,VALID,0,VALID,100,VALID,-0.0849042,VALID,19.0239,VALID,16,VALID,0.846112,
2003-10-16, 01:26:00,VALID,918.775,VALID,0,VALID,100,VALID,-0.0509425,VALID,19.0339,VALID,11,VALID,1.02992,
2003-10-16, 01:27:00,VALID,918.778,VALID,0,VALID,100,VALID,-0.0849042,VALID,19.0232,VALID,318,VALID,0.657812,
2003-10-16, 01:28:00,VALID,918.786,VALID,0,VALID,100,VALID,-0.0339617,VALID,19.0038,VALID,53,VALID,0.342035,
2003-10-16, 01:29:00,VALID,918.757,VALID,0,VALID,100,VALID,-0.0849042,VALID,19.0145,VALID,104,VALID,0.168255,
2003-10-16, 01:30:00,VALID,918.725,VALID,0,VALID,100,VALID,-0.0679233,VALID,18.9944,VALID,65,VALID,0.347266,
2003-10-16, 01:31:00,VALID,918.741,VALID,0,VALID,100,VALID,-0.0849042,VALID,19.0011,VALID,340,VALID,0.263672,
2003-10-16, 01:32:00,VALID,918.734,VALID,0,VALID,100,VALID,-0.0679233,VALID,19.0105,VALID,343,VALID,0.0522693,
2003-10-16, 01:33:00,VALID,918.718,VALID,0,VALID,100,VALID,-0.0849042,VALID,19.0242,VALID,311,VALID,0.787464,
2003-10-16, 01:34:00,VALID,918.706,VALID,0,VALID,100,VALID,-0.0509425,VALID,19.0264,VALID,10,VALID,0.918241,
2003-10-16, 01:35:00,VALID,918.725,VALID,0,VALID,100,VALID,-0.0679233,VALID,19.0297,VALID,99,VALID,0.458984,
2003-10-16, 01:36:00,VALID,918.705,VALID,0,VALID,100,VALID,-0.0679233,VALID,19.0163,VALID,169,VALID,0.591882,
2003-10-16, 01:37:00,VALID,918.695,VALID,0,VALID,100,VALID,-0.0509425,VALID,19.02,VALID,120,VALID,0.202951,
2003-10-16, 01:38:00,VALID,918.682,VALID,0,VALID,100,VALID,-0.0509425,VALID,19.0299,VALID,20,VALID,0.324132,
2003-10-16, 01:39:00,VALID,918.687,VALID,0,VALID,100,VALID,-0.0509425,VALID,19.026,VALID,330,VALID,0.184524,
2003-10-16, 01:40:00,VALID,918.666,VALID,0,VALID,100,VALID,-0.0339617,VALID,19.0327,VALID,11,VALID,0.34847,
2003-10-16, 01:41:00,VALID,918.668,VALID,0,VALID,100,VALID,-0.0169808,VALID,19.029,VALID,22,VALID,0.629861,
2003-10-16, 01:42:00,VALID,918.688,VALID,0,VALID,100,VALID,-0.0339617,VALID,19.0424,VALID,22,VALID,0.139291,
2003-10-16, 01:43:00,VALID,918.68,VALID,0,VALID,100,VALID,-0.0509425,VALID,19.0523,VALID,5,VALID,0.759233,
2003-10-16, 01:44:00,VALID,918.688,VALID,0,VALID,100,VALID,-0.0679233,VALID,19.0453,VALID,318,VALID,0.349888,
2003-10-16, 01:45:00,VALID,918.677,VALID,0,VALID,100,VALID,-0.0509425,VALID,19.0364,VALID,28,VALID,0.839472,
2003-10-16, 01:46:00,VALID,918.677,VALID,0,VALID,100,VALID,-0.0679233,VALID,19.0299,VALID,6,VALID,0.650799,
2003-10-16, 01:47:00,VALID,918.688,VALID,0,VALID,100,VALID,-0.0509425,VALID,19.0262,VALID,192,VALID,0.474516,
2003-10-16, 01:48:00,VALID,918.664,VALID,0,VALID,100,VALID,-0.0169808,VALID,19.0257,VALID,50,VALID,0.677083,
2003-10-16, 01:49:00,VALID,918.675,VALID,0,VALID,100,VALID,-0.0339617,VALID,19.0359,VALID,1,VALID,0.661204,
2003-10-16, 01:50:00,VALID,918.678,VALID,0,VALID,100,VALID,0,VALID,19.0495,VALID,9,VALID,0.275436,
2003-10-16, 01:51:00,VALID,918.675,VALID,0,VALID,100,VALID,-0.0509425,VALID,19.0327,VALID,10,VALID,0.453125,
2003-10-16, 01:52:00,VALID,918.674,VALID,0,VALID,100,VALID,-0.0509425,VALID,19.0327,VALID,9,VALID,0.658296,
2003-10-16, 01:53:00,VALID,918.658,VALID,0,VALID,100,VALID,-0.0339617,VALID,19.0389,VALID,10,VALID,0.203869,
2003-10-16, 01:54:00,VALID,918.665,VALID,0,VALID,100,VALID,-0.0679233,VALID,19.0361,VALID,10,VALID,0.104992,
2003-10-16, 01:55:00,VALID,918.662,VALID,0,VALID,100,VALID,-0.0169808,VALID,19.0361,VALID,10,VALID,0,
2003-10-16, 01:56:00,VALID,918.66,VALID,0,VALID,100,VALID,-0.0339617,VALID,19.0225,VALID,10,VALID,0.00290698,
2003-10-16, 01:57:00,VALID,918.652,VALID,0,VALID,100,VALID,-0.0339617,VALID,19.0223,VALID,7,VALID,0.292411,
2003-10-16, 01:58:00,VALID,918.654,VALID,0,VALID,100,VALID,-0.0679233,VALID,19.0294,VALID,322,VALID,0.398615,
2003-10-16, 01:59:00,VALID,918.672,VALID,0.2,VALID,100,VALID,-0.0509425,VALID,19.0394,VALID,299,VALID,0.228277,
2003-10-16, 02:00:00,VALID,918.674,VALID,0,VALID,100,VALID,-0.0509425,VALID,19.0322,VALID,44,VALID,0.316592,
2003-10-16, 02:01:00,VALID,918.672,VALID,0,VALID,100,VALID,-0.0509425,VALID,19.0493,VALID,23,VALID,0.663862,
2003-10-16, 02:02:00,VALID,918.678,VALID,0,VALID,100,VALID,-0.0339617,VALID,19.0426,VALID,338,VALID,0.366257,
2003-10-16, 02:03:00,VALID,918.659,VALID,0,VALID,100,VALID,-0.0339617,VALID,19.0319,VALID,12,VALID,0.445122,
2003-10-16, 02:04:00,VALID,918.634,VALID,0,VALID,100,VALID,-0.0339617,VALID,19.0491,VALID,16,VALID,0.644176,
2003-10-16, 02:05:00,VALID,918.617,VALID,0,VALID,100,VALID,-0.0169808,VALID,19.0453,VALID,7,VALID,0.0726902,
2003-10-16, 02:06:00,VALID,918.624,VALID,0,VALID,100,VALID,-0.0339617,VALID,19.0389,VALID,358,VALID,0.125182,
2003-10-16, 02:07:00,VALID,918.622,VALID,0,VALID,100,VALID,-0.0169808,VALID,19.0327,VALID,268,VALID,0.740007,
2003-10-16, 02:08:00,VALID,918.602,VALID,0,VALID,100,VALID,-0.0169808,VALID,19.029,VALID,5,VALID,0.44093,
2003-10-16, 02:09:00,VALID,918.589,VALID,0,VALID,100,VALID,0,VALID,19.0456,VALID,9,VALID,0.404687,
2003-10-16, 02:10:00,VALID,918.571,VALID,0,VALID,100,VALID,-0.0169808,VALID,19.0389,VALID,2,VALID,0.624609,
2003-10-16, 02:11:00,VALID,918.559,VALID,0,VALID,100,VALID,-0.0339617,VALID,19.0453,VALID,2,VALID,0.438058,
2003-10-16, 02:12:00,VALID,918.55,VALID,0,VALID,100,VALID,-0.0679233,VALID,19.0426,VALID,23,VALID,0.573475,
2003-10-16, 02:13:00,VALID,918.551,VALID,0,VALID,100,VALID,-0.0509425,VALID,19.0287,VALID,22,VALID,0.0195313,
2003-10-16, 02:14:00,VALID,918.534,VALID,0,VALID,100,VALID,-0.0339617,VALID,19.029,VALID,19,VALID,0.468568,
2003-10-16, 02:15:00,VALID,918.522,VALID,0,VALID,100,VALID,-0.101885,VALID,19.0329,VALID,350,VALID,0.193407,
2003-10-16, 02:16:00,VALID,918.518,VALID,0,VALID,100,VALID,-0.0169808,VALID,19.0158,VALID,351,VALID,0.0670421,
2003-10-16, 02:17:00,VALID,918.506,VALID,0,VALID,100,VALID,-0.0679233,VALID,19.0068,VALID,255,VALID,0.318714,
2003-10-16, 02:18:00,VALID,918.482,VALID,0,VALID,100,VALID,-0.0339617,VALID,19.0135,VALID,134,VALID,0.297433,
2003-10-16, 02:19:00,VALID,918.486,VALID,0,VALID,100,VALID,-0.0169808,VALID,19.0098,VALID,13,VALID,0.589757,
2003-10-16, 02:20:00,VALID,918.45,VALID,0,VALID,100,VALID,-0.0339617,VALID,19.0133,VALID,1,VALID,0.918155,
2003-10-16, 02:21:00,VALID,918.434,VALID,0,VALID,100,VALID,-0.0339617,VALID,19.0294,VALID,35,VALID,0.642299,
2003-10-16, 02:22:00,VALID,918.433,VALID,0,VALID,100,VALID,-0.0169808,VALID,19.0426,VALID,20,VALID,0.547783,
2003-10-16, 02:23:00,VALID,918.432,VALID,0,VALID,100,VALID,-0.0169808,VALID,19.0357,VALID,25,VALID,0.266797,
2003-10-16, 02:24:00,VALID,918.384,VALID,0,VALID,100,VALID,0,VALID,19.0488,VALID,21,VALID,0.684028,
2003-10-16, 02:25:00,VALID,918.392,VALID,0,VALID,100,VALID,-0.0339617,VALID,19.0419,VALID,352,VALID,0.686166,
2003-10-16, 02:26:00,VALID,918.396,VALID,0,VALID,100,VALID,-0.0169808,VALID,19.055,VALID,288,VALID,0.175959,
2003-10-16, 02:27:00,VALID,918.381,VALID,0,VALID,100,VALID,-0.0169808,VALID,19.0615,VALID,11,VALID,0.263132,
2003-10-16, 02:28:00,VALID,918.371,VALID,0,VALID,100,VALID,-0.0169808,VALID,19.058,VALID,19,VALID,0.545759,
2003-10-16, 02:29:00,VALID,918.361,VALID,0,VALID,100,VALID,-0.0169808,VALID,19.0647,VALID,36,VALID,0.381882,
2003-10-16, 02:30:00,VALID,918.346,VALID,0,VALID,100,VALID,-0.0339617,VALID,19.0578,VALID,88,VALID,0.339844,
2003-10-16, 02:31:00,VALID,918.353,VALID,0,VALID,100,VALID,-0.0339617,VALID,19.062,VALID,41,VALID,0.441602,
2003-10-16, 02:32:00,VALID,918.34,VALID,0,VALID,100,VALID,-0.0339617,VALID,19.0714,VALID,8,VALID,0.454033,
2003-10-16, 02:33:00,VALID,918.323,VALID,0,VALID,100,VALID,-0.0679233,VALID,19.0717,VALID,313,VALID,0.875,
2003-10-16, 02:34:00,VALID,918.292,VALID,0,VALID,100,VALID,0.101885,VALID,19.0449,VALID,244,VALID,0.986632,
2003-10-16, 02:35:00,VALID,918.266,VALID,0,VALID,100,VALID,0.0509425,VALID,19.0252,VALID,244,VALID,0.0206473,
2003-10-16, 02:36:00,VALID,918.256,VALID,0.2,VALID,100,VALID,0.0169808,VALID,19.025,VALID,244,VALID,0.0118096,
2003-10-16, 02:37:00,VALID,918.245,VALID,0,VALID,100,VALID,0.101885,VALID,19.0349,VALID,208,VALID,0.247159,
2003-10-16, 02:38:00,VALID,918.258,VALID,0,VALID,100,VALID,0.0509425,VALID,19.0416,VALID,255,VALID,0.134084,
2003-10-16, 02:39:00,VALID,918.266,VALID,0,VALID,100,VALID,0.0509425,VALID,19.0414,VALID,255,VALID,0.0788352,
2003-10-16, 02:40:00,VALID,918.249,VALID,0,VALID,100,VALID,0.0679233,VALID,19.0347,VALID,293,VALID,0.0518466,
2003-10-16, 02:41:00,VALID,918.243,VALID,0,VALID,100,VALID,0.0679233,VALID,19.0575,VALID,27,VALID,0.576563,
2003-10-16, 02:42:00,VALID,918.257,VALID,0,VALID,100,VALID,0.0849042,VALID,19.0635,VALID,27,VALID,0.224516,
2003-10-16, 02:43:00,VALID,918.251,VALID,0,VALID,100,VALID,0.0339617,VALID,19.0707,VALID,12,VALID,0.264236,
2003-10-16, 02:44:00,VALID,918.24,VALID,0,VALID,100,VALID,0,VALID,19.0608,VALID,4,VALID,0.157774,
2003-10-16, 02:45:00,VALID,918.24,VALID,0,VALID,100,VALID,0.0849042,VALID,19.0578,VALID,49,VALID,0.472656,
2003-10-16, 02:46:00,VALID,918.231,VALID,0,VALID,100,VALID,0.0169808,VALID,19.0414,VALID,331,VALID,1.84757,
2003-10-16, 02:47:00,VALID,918.252,VALID,0,VALID,100,VALID,0.0339617,VALID,19.0317,VALID,327,VALID,0.324219,
2003-10-16, 02:48:00,VALID,918.256,VALID,0,VALID,100,VALID,0.0679233,VALID,19.0449,VALID,83,VALID,0.441306,
2003-10-16, 02:49:00,VALID,918.256,VALID,0,VALID,100,VALID,0.0339617,VALID,19.0317,VALID,52,VALID,0.545967,
2003-10-16, 02:50:00,VALID,918.23,VALID,0,VALID,100,VALID,0.0509425,VALID,19.0548,VALID,33,VALID,0.5625,
2003-10-16, 02:51:00,VALID,918.217,VALID,0,VALID,100,VALID,0.0339617,VALID,19.0444,VALID,25,VALID,0.674538,
2003-10-16, 02:52:00,VALID,918.206,VALID,0,VALID,100,VALID,0.0509425,VALID,19.0252,VALID,339,VALID,0.381541,
2003-10-16, 02:53:00,VALID,918.189,VALID,0,VALID,100,VALID,0.0509425,VALID,19.0352,VALID,247,VALID,0.544085,
2003-10-16, 02:54:00,VALID,918.183,VALID,0,VALID,100,VALID,0.0169808,VALID,19.0287,VALID,150,VALID,0.324314,
2003-10-16, 02:55:00,VALID,918.168,VALID,0,VALID,100,VALID,0.0339617,VALID,19.0121,VALID,121,VALID,0.678925,
2003-10-16, 02:56:00,VALID,918.171,VALID,0,VALID,100,VALID,0.0339617,VALID,19.0223,VALID,353,VALID,0.46317,
2003-10-16, 02:57:00,VALID,918.19,VALID,0,VALID,100,VALID,0.0679233,VALID,19.0188,VALID,300,VALID,0.631288,
2003-10-16, 02:58:00,VALID,918.177,VALID,0,VALID,100,VALID,0.0679233,VALID,19.0056,VALID,19,VALID,0.933036,
2003-10-16, 02:59:00,VALID,918.191,VALID,0,VALID,100,VALID,0.0679233,VALID,19.0126,VALID,25,VALID,0.742551,
2003-10-16, 03:00:00,VALID,918.184,VALID,0,VALID,100,VALID,0.0679233,VALID,19.0086,VALID,13,VALID,0.277951,
2003-10-16, 03:01:00,VALID,918.174,VALID,0,VALID,100,VALID,0.0679233,VALID,19.0093,VALID,56,VALID,0.235102,
2003-10-16, 03:02:00,VALID,918.203,VALID,0,VALID,100,VALID,0.101885,VALID,18.9962,VALID,194,VALID,1.22452,
2003-10-16, 03:03:00,VALID,918.228,VALID,0,VALID,100,VALID,0,VALID,18.9967,VALID,305,VALID,0.910714,
2003-10-16, 03:04:00,VALID,918.207,VALID,0,VALID,100,VALID,-0.0849042,VALID,18.9944,VALID,76,VALID,0.294837,
2003-10-16, 03:05:00,VALID,918.242,VALID,0,VALID,100,VALID,-0.0849042,VALID,19.0075,VALID,27,VALID,0.893674,
2003-10-16, 03:06:00,VALID,918.238,VALID,0,VALID,100,VALID,-0.0509425,VALID,18.9979,VALID,296,VALID,0.822516,
2003-10-16, 03:07:00,VALID,918.222,VALID,0,VALID,100,VALID,-0.0849042,VALID,19.0011,VALID,340,VALID,1.16559,
2003-10-16, 03:08:00,VALID,918.238,VALID,0,VALID,100,VALID,-0.0339617,VALID,19.0043,VALID,244,VALID,0.485243,
2003-10-16, 03:09:00,VALID,918.237,VALID,0,VALID,100,VALID,-0.0509425,VALID,18.9946,VALID,104,VALID,0.753906,
2003-10-16, 03:10:00,VALID,918.243,VALID,0,VALID,100,VALID,-0.0679233,VALID,19.0046,VALID,202,VALID,0.832854,
2003-10-16, 03:11:00,VALID,918.25,VALID,0,VALID,100,VALID,-0.0169808,VALID,19.0013,VALID,205,VALID,0.566319,
2003-10-16, 03:12:00,VALID,918.258,VALID,0,VALID,100,VALID,-0.0849042,VALID,18.9879,VALID,217,VALID,0.542333,
2003-10-16, 03:13:00,VALID,918.268,VALID,0,VALID,100,VALID,-0.0339617,VALID,18.9979,VALID,244,VALID,0.189918,
2003-10-16, 03:14:00,VALID,918.309,VALID,0,VALID,100,VALID,-0.0679233,VALID,18.9914,VALID,252,VALID,0.654251,
2003-10-16, 03:15:00,VALID,918.269,VALID,0,VALID,100,VALID,-0.0679233,VALID,18.9879,VALID,348,VALID,0.901228,
2003-10-16, 03:16:00,VALID,918.279,VALID,0,VALID,100,VALID,-0.0679233,VALID,18.9745,VALID,274,VALID,0.242543,
2003-10-16, 03:17:00,VALID,918.279,VALID,0,VALID,100,VALID,-0.0169808,VALID,18.9815,VALID,236,VALID,0.58718,
2003-10-16, 03:18:00,VALID,918.279,VALID,0,VALID,100,VALID,-0.0169808,VALID,18.9812,VALID,211,VALID,0.867543,
2003-10-16, 03:19:00,VALID,918.272,VALID,0,VALID,100,VALID,-0.0679233,VALID,18.9785,VALID,224,VALID,1.39732,
2003-10-16, 03:20:00,VALID,918.26,VALID,0,VALID,100,VALID,-0.0849042,VALID,18.975,VALID,317,VALID,1.17076,
2003-10-16, 03:21:00,VALID,918.295,VALID,0,VALID,100,VALID,-0.0849042,VALID,18.9882,VALID,224,VALID,0.797991,
2003-10-16, 03:22:00,VALID,918.299,VALID,0,VALID,100,VALID,-0.0339617,VALID,19.0046,VALID,262,VALID,1.12847,
2003-10-16, 03:23:00,VALID,918.317,VALID,0,VALID,100,VALID,-0.0849042,VALID,18.9914,VALID,266,VALID,0.745276,
2003-10-16, 03:24:00,VALID,918.292,VALID,0,VALID,100,VALID,-0.0509425,VALID,19.0048,VALID,137,VALID,0.362645,
2003-10-16, 03:25:00,VALID,918.304,VALID,0,VALID,100,VALID,-0.0679233,VALID,19.0239,VALID,19,VALID,0.525436,
2003-10-16, 03:26:00,VALID,918.286,VALID,0,VALID,100,VALID,-0.0339617,VALID,19.0299,VALID,26,VALID,0.374092,
2003-10-16, 03:27:00,VALID,918.282,VALID,0,VALID,100,VALID,-0.0339617,VALID,19.0237,VALID,249,VALID,0.735119,
2003-10-16, 03:28:00,VALID,918.278,VALID,0,VALID,100,VALID,0,VALID,19.0235,VALID,316,VALID,0.662153,
2003-10-16, 03:29:00,VALID,918.271,VALID,0,VALID,100,VALID,-0.0509425,VALID,19.0364,VALID,17,VALID,0.351017,
2003-10-16, 03:30:00,VALID,918.27,VALID,0,VALID,100,VALID,-0.0679233,VALID,19.0334,VALID,288,VALID,0.689596,
2003-10-16, 03:31:00,VALID,918.253,VALID,0,VALID,100,VALID,-0.0339617,VALID,19.0172,VALID,294,VALID,0.357143,
2003-10-16, 03:32:00,VALID,918.269,VALID,0,VALID,100,VALID,-0.0339617,VALID,19.017,VALID,8,VALID,0.287202,
2003-10-16, 03:33:00,VALID,918.292,VALID,0,VALID,100,VALID,-0.101885,VALID,19.0207,VALID,54,VALID,0.175781,
2003-10-16, 03:34:00,VALID,918.268,VALID,0,VALID,100,VALID,0,VALID,19.0158,VALID,50,VALID,0.286882,
2003-10-16, 03:35:00,VALID,918.289,VALID,0,VALID,100,VALID,0,VALID,19.0031,VALID,248,VALID,0.483487,
2003-10-16, 03:36:00,VALID,918.294,VALID,0,VALID,100,VALID,0,VALID,19.0064,VALID,70,VALID,0.282138,
2003-10-16, 03:37:00,VALID,918.294,VALID,0,VALID,100,VALID,0,VALID,19.0128,VALID,2,VALID,0.0587713,
2003-10-16, 03:38:00,VALID,918.3,VALID,0,VALID,100,VALID,0,VALID,19.0188,VALID,2,VALID,0,
2003-10-16, 03:39:00,VALID,918.279,VALID,0,VALID,100,VALID,0,VALID,19.0026,VALID,12,VALID,0.294695,
2003-10-16, 03:40:00,VALID,918.28,VALID,0,VALID,100,VALID,0.0169808,VALID,19.0126,VALID,337,VALID,0.44401,